Location: Unspecified
(0.0000°N, 0.0000°E)
Time: 18:13:52
(UTC+00:00)

Vanguard 1 Rocket - Pass Details

Date: 18 April 2026
Orbit: 655 x 4212 km, 34.3° (Epoch: 17 May)

Event Time Altitude Azimuth Distance (km) Brightness Sun altitude
Rises 18:24:57 0° 240° (WSW) 5,724 12.3 -6.3°
Reaches altitude 10° 18:28:00 10° 242° (WSW) 5,081 12.0 -7.0°
Maximum altitude 18:44:42 73° 324° (NW) 3,710 10.6 -11.1°
Drops below altitude 10° 19:10:58 10° 46° (NE) 7,377 11.7 -17.6°
Sets 19:16:40 0° 49° (NE) 8,283 11.9 -19.0°
